This is the latest recevied weather packets stored in our database for station/object DG6HD-13. If no packets are shown the sender has not sent any weather packets the latest 10 day(s).
| Time | Temp. | Humidity | Pressure | Rain* | Wind** | Luminosity | Snow |
|---|---|---|---|---|---|---|---|
| 1778153467 | 14.44° C | 38% | 1016.7 hPa | - | - | - | - |
| 1778152566 | 13.89° C | 39% | 1016.7 hPa | - | - | - | - |
| 1778151665 | 14.44° C | 41% | 1016.7 hPa | - | - | - | - |
| 1778150764 | 13.89° C | 40% | 1016.6 hPa | - | - | - | - |
| 1778149864 | 13.89° C | 42% | 1016.6 hPa | - | - | - | - |
| 1778148963 | 13.89° C | 42% | 1016.5 hPa | - | - | - | - |
| 1778148062 | 13.33° C | 45% | 1016.4 hPa | - | - | - | - |
| 1778147161 | 12.78° C | 47% | 1016.4 hPa | - | - | - | - |
| 1778146260 | 11.67° C | 50% | 1016.3 hPa | - | - | - | - |
| 1778145360 | 11.67° C | 51% | 1016.1 hPa | - | - | - | - |
| 1778144459 | 10.56° C | 53% | 1016.1 hPa | - | - | - | - |
| 1778143558 | 10.56° C | 54% | 1016 hPa | - | - | - | - |
| 1778142657 | 10° C | 55% | 1016 hPa | - | - | - | - |
| 1778141756 | 9.44° C | 56% | 1016 hPa | - | - | - | - |
| 1778140855 | 8.89° C | 57% | 1015.8 hPa | - | - | - | - |
| 1778139955 | 8.33° C | 58% | 1015.6 hPa | - | - | - | - |
| 1778139054 | 7.78° C | 59% | 1015.6 hPa | - | - | - | - |
| 1778138153 | 7.78° C | 59% | 1015.5 hPa | - | - | - | - |
| 1778137252 | 7.78° C | 59% | 1015.4 hPa | - | - | - | - |
| 1778136351 | 7.22° C | 60% | 1015.3 hPa | - | - | - | - |
| 1778135451 | 7.22° C | 60% | 1015.2 hPa | - | - | - | - |
| 1778134549 | 7.22° C | 60% | 1015 hPa | - | - | - | - |
| 1778133649 | 7.22° C | 59% | 1014.9 hPa | - | - | - | - |
| 1778132748 | 7.22° C | 59% | 1014.6 hPa | - | - | - | - |
| 1778131847 | 7.22° C | 58% | 1014.6 hPa | - | - | - | - |
* Rain since midnight (hover to see other rain measurements)
** Current wind speed in m/s (hover to see current wind gust speed)